Location: Dannhausen
(51.8650°N, 10.1026°E)
Time: 00:48:25
(UTC+00:00)

Cosmos 2233 Rocket - Pass Details

Date: 15 August 2020
Orbit: 952 x 992 km, 82.9° (Epoch: 26 September)

Event Time Altitude Azimuth Distance (km) Brightness Sun altitude
Exits shadow 22:34:04 34° 217° (SW) 1,577 4.7 -23.6°
Maximum altitude 22:36:50 62° 284° (WNW) 1,111 4.3 -23.7°
Drops below altitude 10° 22:43:08 10° 5° (N) 2,763 7.4 -23.9°
Sets 22:45:42 0° 9° (N) 3,713 8.2 -23.9°
